Location: Toronto
(43.6672°N, 79.4170°W)
Time: 10:11:44
(UTC-04:00)

ISS - Visible Passes

Search period start: 24 March 2017 00:00
Search period end: 03 April 2017 00:00
Orbit: 399 x 409 km, 51.6° (Epoch: 24 March)

Date Brightness Start Highest point End Pass type
(mag) Time Alt. Az. Time Alt. Az. Time Alt. Az.
26 Mar -2.0 21:16:59 10° SSW 21:18:21 21° SSW 21:18:21 21° SSW visible
27 Mar -2.3 20:25:20 10° S 20:27:46 19° SE 20:29:15 15° E visible
27 Mar -1.5 22:00:45 10° WSW 22:01:58 21° WSW 22:01:58 21° WSW visible
28 Mar -4.0 21:08:17 10° SW 21:11:32 82° SSE 21:12:35 40° ENE visible
29 Mar -3.4 20:16:05 10° SW 20:19:11 43° SE 20:22:19 10° ENE visible
29 Mar -2.2 21:52:42 10° W 21:55:38 33° NNW 21:55:38 33° NNW visible
30 Mar -3.0 21:00:01 10° WSW 21:03:10 49° NNW 21:05:46 14° NE visible
30 Mar -0.6 22:37:38 10° WNW 22:38:27 14° NW 22:38:27 14° NW visible
31 Mar -3.8 20:07:27 10° WSW 20:10:42 83° NNW 20:13:58 10° ENE visible
31 Mar -1.8 21:44:48 10° WNW 21:47:31 24° NNW 21:48:24 21° NNE visible
01 Apr -2.1 20:51:57 10° W 20:54:53 30° NNW 20:57:50 10° NE visible
01 Apr -0.9 22:29:33 10° NW 22:30:54 17° NNW 22:30:54 17° NNW visible
02 Apr -1.6 21:36:49 10° NW 21:39:21 20° N 21:40:37 16° NNE visible
